SWR1PA LSZH-EGLL

Flight info

Callsign SWR1PA
Flight time 1h 48m
Altitude 34000
Route VEBIT T10 TORPA DCT REKLA DCT RLP DCT ROTSI DCT KOTUN DCT NINAL DCT ABNUR DCT DIMAL DCT ALESO
Aircraft A320/M-SDE3FGHIRWY/LB1

Departure

Time 2026-05-06 21:25
Airport Zürich Airport (LSZH)

Arrival

Time 2026-05-06 23:13
Airport London Heathrow Airport (EGLL)
Time Latitude Longitude Altitude Speed Heading
2026-05-06 21:06 47.45409 8.55946 1412 ft 0 kts 186°
2026-05-06 21:19 47.45431 8.55948 1407 ft 4 kts 182°
2026-05-06 21:19 47.45449 8.55950 1409 ft 4 kts 182°
2026-05-06 21:20 47.45491 8.55969 1407 ft 0 kts 276°
2026-05-06 21:21 47.45492 8.55956 1407 ft 4 kts 276°
2026-05-06 21:22 47.45503 8.55876 1410 ft 12 kts 296°
2026-05-06 21:22 47.45591 8.55849 1409 ft 17 kts
2026-05-06 21:22 47.45628 8.56005 1410 ft 21 kts 95°
2026-05-06 21:22 47.45613 8.56248 1412 ft 26 kts 96°
2026-05-06 21:23 47.45590 8.56538 1420 ft 30 kts 96°
2026-05-06 21:23 47.45569 8.56849 1422 ft 30 kts 96°
2026-05-06 21:23 47.45592 8.57005 1423 ft 13 kts 27°
2026-05-06 21:23 47.45659 8.56977 1424 ft 10 kts 302°
2026-05-06 21:24 47.45675 8.56838 1422 ft 22 kts 276°
2026-05-06 21:24 47.45711 8.56327 1415 ft 85 kts 276°
2026-05-06 21:24 47.45795 8.55145 1402 ft 143 kts 276°
2026-05-06 21:24 47.45907 8.53526 1696 ft 161 kts 277°
2026-05-06 21:25 47.46018 8.51902 2458 ft 157 kts 274°
2026-05-06 21:25 47.46124 8.50328 3085 ft 153 kts 274°
2026-05-06 21:25 47.46219 8.48777 3629 ft 150 kts 270°
2026-05-06 21:25 47.45910 8.47340 4124 ft 151 kts 234°
2026-05-06 21:26 47.45280 8.46110 4652 ft 150 kts 244°
2026-05-06 21:26 47.44784 8.44683 4939 ft 165 kts 244°
2026-05-06 21:26 47.44240 8.43096 5129 ft 182 kts 244°
2026-05-06 21:26 47.43631 8.41320 5342 ft 204 kts 244°
2026-05-06 21:27 47.42983 8.39430 6039 ft 207 kts 244°
2026-05-06 21:27 47.42174 8.37678 6802 ft 209 kts 226°
2026-05-06 21:27 47.40969 8.36442 7514 ft 215 kts 206°
2026-05-06 21:27 47.39493 8.35949 8205 ft 223 kts 185°
2026-05-06 21:28 47.37935 8.36361 8916 ft 235 kts 162°
2026-05-06 21:28 47.36551 8.37729 9634 ft 247 kts 137°
2026-05-06 21:28 47.35646 8.39934 10306 ft 259 kts 110°
2026-05-06 21:28 47.35489 8.42603 10948 ft 267 kts 82°
2026-05-06 21:29 47.36181 8.45145 11629 ft 271 kts 52°
2026-05-06 21:29 47.37583 8.46965 12298 ft 270 kts 28°
2026-05-06 21:29 47.39218 8.48347 12990 ft 272 kts 27°
2026-05-06 21:29 47.40870 8.49729 13699 ft 274 kts 28°
2026-05-06 21:30 47.42530 8.51117 14314 ft 276 kts 28°
2026-05-06 21:30 47.44206 8.52530 14897 ft 279 kts 31°
2026-05-06 21:30 47.45664 8.54415 15445 ft 281 kts 58°
2026-05-06 21:30 47.46410 8.57072 15709 ft 293 kts 82°
2026-05-06 21:31 47.46600 8.60206 15843 ft 313 kts 92°
2026-05-06 21:31 47.46546 8.63446 15973 ft 332 kts 95°
2026-05-06 21:31 47.46437 8.67008 16080 ft 353 kts 95°
2026-05-06 21:31 47.46377 8.70677 16209 ft 371 kts 93°
2026-05-06 21:32 47.46395 8.74578 16346 ft 389 kts 91°
2026-05-06 21:32 47.46507 8.82744 17225 ft 401 kts 97°
2026-05-06 21:32 47.46048 8.86811 17821 ft 402 kts 103°
2026-05-06 21:33 47.45491 8.90869 18415 ft 404 kts 104°
2026-05-06 21:33 47.45100 8.93619 18781 ft 405 kts 104°
2026-05-06 21:33 47.44511 8.97705 19285 ft 408 kts 105°
2026-05-06 21:33 47.43926 9.01738 19765 ft 411 kts 105°
2026-05-06 21:34 47.43323 9.05898 20240 ft 413 kts 105°
2026-05-06 21:34 47.42716 9.10063 20713 ft 416 kts 105°
2026-05-06 21:34 47.42243 9.14296 21153 ft 422 kts 97°
2026-05-06 21:34 47.42274 9.18661 21576 ft 429 kts 87°
2026-05-06 21:35 47.42852 9.23017 21938 ft 438 kts 76°
2026-05-06 21:35 47.43992 9.27217 22323 ft 445 kts 65°
2026-05-06 21:35 47.45535 9.31212 22724 ft 449 kts 61°
2026-05-06 21:35 47.47274 9.34912 23083 ft 455 kts 52°
2026-05-06 21:36 47.49481 9.38295 23448 ft 460 kts 42°
2026-05-06 21:36 47.52072 9.41105 23760 ft 465 kts 31°
2026-05-06 21:36 47.54977 9.43235 24042 ft 468 kts 21°
2026-05-06 21:36 47.58096 9.44671 24339 ft 471 kts 11°
2026-05-06 21:37 47.61339 9.45285 24621 ft 471 kts
2026-05-06 21:37 47.64609 9.45469 24934 ft 473 kts
2026-05-06 21:37 47.67913 9.45645 25261 ft 474 kts
2026-05-06 21:37 47.71221 9.45815 25545 ft 477 kts 360°
2026-05-06 21:38 47.74511 9.45984 25814 ft 479 kts 360°
2026-05-06 21:38 47.77888 9.46157 26074 ft 482 kts 360°
2026-05-06 21:38 47.81253 9.46325 26317 ft 485 kts 359°
2026-05-06 21:38 47.84632 9.46409 26584 ft 486 kts 358°
2026-05-06 21:39 47.88019 9.46406 26883 ft 487 kts 357°
2026-05-06 21:39 47.91344 9.46357 27129 ft 489 kts 356°
2026-05-06 21:39 47.94783 9.46293 27357 ft 491 kts 356°
2026-05-06 21:39 47.98214 9.46236 27577 ft 494 kts 356°
2026-05-06 21:40 48.01654 9.46196 27785 ft 496 kts 357°
2026-05-06 21:40 48.05115 9.46175 28006 ft 498 kts 357°
2026-05-06 21:40 48.08576 9.46173 28306 ft 498 kts 357°
2026-05-06 21:40 48.11937 9.46178 28592 ft 498 kts 357°
2026-05-06 21:41 48.15403 9.46184 28878 ft 498 kts 357°
2026-05-06 21:41 48.18874 9.46193 29164 ft 499 kts 357°
2026-05-06 21:41 48.22349 9.46204 29459 ft 499 kts 357°
2026-05-06 21:41 48.25828 9.46210 29756 ft 500 kts 357°
2026-05-06 21:42 48.29224 9.46214 30212 ft 494 kts 358°
2026-05-06 21:42 48.32638 9.46216 30663 ft 488 kts 358°
2026-05-06 21:42 48.36023 9.46218 30999 ft 486 kts 358°
2026-05-06 21:42 48.39400 9.46218 31289 ft 485 kts 358°
2026-05-06 21:43 48.42722 9.46216 31558 ft 484 kts 358°
2026-05-06 21:43 48.46114 9.46213 31839 ft 483 kts 358°
2026-05-06 21:43 48.49474 9.46215 32119 ft 483 kts 358°
2026-05-06 21:43 48.52781 9.46222 32392 ft 482 kts 358°
2026-05-06 21:44 48.56136 9.46218 32674 ft 481 kts 358°
2026-05-06 21:44 48.59482 9.46190 32958 ft 481 kts 358°
2026-05-06 21:44 48.62822 9.46142 33230 ft 480 kts 357°
2026-05-06 21:44 48.66130 9.45777 33498 ft 477 kts 348°
2026-05-06 21:45 48.69332 9.44571 33765 ft 473 kts 338°
2026-05-06 21:45 48.72333 9.42601 33983 ft 469 kts 328°
2026-05-06 21:45 48.75061 9.39947 34185 ft 465 kts 319°
2026-05-06 21:45 48.77442 9.36680 34388 ft 460 kts 309°
2026-05-06 21:46 48.79454 9.32933 34583 ft 458 kts 304°
2026-05-06 21:46 48.81396 9.29112 34781 ft 458 kts 304°
2026-05-06 21:46 48.83341 9.25284 34977 ft 458 kts 304°
2026-05-06 21:46 48.85290 9.21455 35193 ft 458 kts 304°
2026-05-06 21:47 48.87233 9.17638 35415 ft 457 kts 304°
2026-05-06 21:47 48.89172 9.13825 35619 ft 456 kts 304°
2026-05-06 21:47 48.91109 9.10008 35808 ft 456 kts 304°
2026-05-06 21:47 48.93050 9.06180 35881 ft 458 kts 304°
2026-05-06 21:48 48.96670 8.99010 35892 ft 460 kts 304°
2026-05-06 21:48 49.00482 8.91423 35880 ft 461 kts 304°
2026-05-06 21:49 49.04379 8.83662 35885 ft 461 kts 304°
2026-05-06 21:49 49.08200 8.76037 35887 ft 459 kts 304°
2026-05-06 21:50 49.12068 8.68285 35883 ft 459 kts 304°
2026-05-06 21:50 49.15930 8.60523 35884 ft 459 kts 304°
2026-05-06 21:51 49.19736 8.52843 35885 ft 459 kts 304°
2026-05-06 21:51 49.23642 8.44954 35897 ft 459 kts 304°
2026-05-06 21:52 49.27472 8.37209 35892 ft 459 kts 304°
2026-05-06 21:52 49.31343 8.29347 35893 ft 459 kts 304°
2026-05-06 21:53 49.35186 8.21520 35894 ft 459 kts 304°
2026-05-06 21:53 49.38997 8.13726 35894 ft 460 kts 304°
2026-05-06 21:54 49.42826 8.05867 35896 ft 460 kts 304°
2026-05-06 21:54 49.46653 7.97997 35905 ft 460 kts 304°
2026-05-06 21:55 49.50474 7.90114 35906 ft 460 kts 304°
2026-05-06 21:55 49.54286 7.82218 35895 ft 460 kts 304°
2026-05-06 21:56 49.58097 7.74309 35892 ft 460 kts 304°
2026-05-06 21:56 49.61901 7.66390 35889 ft 460 kts 304°
2026-05-06 21:57 49.65698 7.58464 35901 ft 459 kts 304°
2026-05-06 21:57 49.69487 7.50534 35899 ft 459 kts 304°
2026-05-06 21:58 49.73266 7.42597 35901 ft 458 kts 304°
2026-05-06 21:58 49.77041 7.34661 35900 ft 458 kts 304°
2026-05-06 21:59 49.80806 7.26708 35897 ft 458 kts 304°
2026-05-06 21:59 49.84563 7.18741 35912 ft 458 kts 304°
2026-05-06 22:00 49.88313 7.10766 35910 ft 457 kts 304°
2026-05-06 22:00 49.92057 7.02791 35911 ft 457 kts 304°
2026-05-06 22:01 49.95790 6.94805 35911 ft 457 kts 304°
2026-05-06 22:01 49.99520 6.86812 35911 ft 457 kts 304°
2026-05-06 22:02 50.03248 6.78806 35923 ft 457 kts 304°
2026-05-06 22:02 50.06936 6.70840 35917 ft 457 kts 304°
2026-05-06 22:03 50.10636 6.62810 35913 ft 456 kts 304°
2026-05-06 22:03 50.14337 6.54778 35914 ft 456 kts 304°
2026-05-06 22:04 50.18025 6.46735 35911 ft 456 kts 303°
2026-05-06 22:04 50.21527 6.38505 35932 ft 454 kts 300°
2026-05-06 22:05 50.24790 6.30065 35928 ft 453 kts 299°
2026-05-06 22:05 50.28021 6.21613 35947 ft 453 kts 300°
2026-05-06 22:06 50.31301 6.13202 35935 ft 453 kts 300°
2026-05-06 22:06 50.34596 6.04798 35951 ft 453 kts 300°
2026-05-06 22:07 50.37886 5.96381 35957 ft 453 kts 300°
2026-05-06 22:07 50.41153 5.87966 35963 ft 452 kts 300°
2026-05-06 22:08 50.44412 5.79540 35956 ft 452 kts 300°
2026-05-06 22:08 50.47662 5.71107 35972 ft 452 kts 300°
2026-05-06 22:09 50.50909 5.62661 35962 ft 452 kts 300°
2026-05-06 22:09 50.54149 5.54205 35971 ft 451 kts 300°
2026-05-06 22:10 50.57371 5.45755 35966 ft 450 kts 300°
2026-05-06 22:10 50.60581 5.37314 35969 ft 449 kts 300°
2026-05-06 22:11 50.63784 5.28868 35961 ft 449 kts 300°
2026-05-06 22:11 50.66982 5.20404 35965 ft 449 kts 300°
2026-05-06 22:12 50.70173 5.11935 35972 ft 449 kts 300°
2026-05-06 22:12 50.73358 5.03459 35984 ft 449 kts 300°
2026-05-06 22:13 50.76537 4.94974 35981 ft 449 kts 300°
2026-05-06 22:13 50.79679 4.86534 35995 ft 448 kts 299°
2026-05-06 22:14 50.82832 4.78039 35989 ft 448 kts 299°
2026-05-06 22:14 50.85476 4.70919 35988 ft 448 kts 299°
2026-05-06 22:15 50.89132 4.61051 35997 ft 447 kts 300°
2026-05-06 22:15 50.92260 4.52551 35995 ft 446 kts 299°
2026-05-06 22:16 50.95376 4.44047 35994 ft 446 kts 299°
2026-05-06 22:16 50.98490 4.35544 35991 ft 446 kts 299°
2026-05-06 22:17 51.01594 4.27037 35992 ft 445 kts 299°
2026-05-06 22:17 51.04694 4.18511 36005 ft 445 kts 299°
2026-05-06 22:18 51.07781 4.09983 36001 ft 445 kts 299°
2026-05-06 22:18 51.10840 4.01507 35998 ft 445 kts 299°
2026-05-06 22:19 51.13911 3.92955 35993 ft 445 kts 299°
2026-05-06 22:19 51.16977 3.84393 35989 ft 445 kts 299°
2026-05-06 22:20 51.19522 3.77268 35992 ft 445 kts 299°
2026-05-06 22:20 51.23077 3.67307 35992 ft 445 kts 299°
2026-05-06 22:21 51.26169 3.58752 36000 ft 445 kts 300°
2026-05-06 22:21 51.29338 3.50271 36001 ft 445 kts 300°
2026-05-06 22:22 51.31996 3.43156 36003 ft 445 kts 300°
2026-05-06 22:22 51.35004 3.34598 36002 ft 444 kts 292°
2026-05-06 22:23 51.37237 3.25331 36008 ft 443 kts 290°
2026-05-06 22:23 51.39410 3.16166 36009 ft 443 kts 290°
2026-05-06 22:24 51.41586 3.06941 36012 ft 443 kts 290°
2026-05-06 22:24 51.43750 2.97720 36013 ft 442 kts 290°
2026-05-06 22:25 51.45910 2.88494 36013 ft 442 kts 290°
2026-05-06 22:25 51.48061 2.79276 36019 ft 441 kts 290°
2026-05-06 22:26 51.50202 2.70052 36018 ft 441 kts 289°
2026-05-06 22:26 51.52330 2.60831 36026 ft 440 kts 289°
2026-05-06 22:27 51.54447 2.51617 36031 ft 439 kts 289°
2026-05-06 22:27 51.56556 2.42412 36033 ft 439 kts 289°
2026-05-06 22:28 51.58657 2.33215 36034 ft 438 kts 289°
2026-05-06 22:28 51.60752 2.24011 36032 ft 438 kts 289°
2026-05-06 22:29 51.62830 2.14805 36030 ft 438 kts 289°
2026-05-06 22:29 51.63868 2.10190 35866 ft 439 kts 289°
2026-05-06 22:29 51.64912 2.05544 34858 ft 445 kts 289°
2026-05-06 22:30 51.65962 2.00858 34005 ft 445 kts 289°
2026-05-06 22:30 51.67010 1.96165 32927 ft 446 kts 289°
2026-05-06 22:30 51.68059 1.91466 31958 ft 445 kts 289°
2026-05-06 22:30 51.69105 1.86769 30970 ft 446 kts 289°
2026-05-06 22:31 51.70156 1.82052 29830 ft 449 kts 289°
2026-05-06 22:31 51.71211 1.77310 28638 ft 450 kts 289°
2026-05-06 22:31 51.72260 1.72568 27506 ft 449 kts 289°
2026-05-06 22:31 51.73309 1.67802 26253 ft 452 kts 288°
2026-05-06 22:32 51.74086 1.62905 25271 ft 449 kts 278°
2026-05-06 22:32 51.74385 1.57936 24569 ft 442 kts 270°
2026-05-06 22:32 51.74242 1.53012 23934 ft 438 kts 264°
2026-05-06 22:32 51.73941 1.48205 23229 ft 434 kts 264°
2026-05-06 22:33 51.73627 1.43312 22566 ft 432 kts 264°
2026-05-06 22:33 51.73318 1.38579 21930 ft 429 kts 264°
2026-05-06 22:33 51.73004 1.33817 21291 ft 425 kts 264°
2026-05-06 22:33 51.72692 1.29102 20654 ft 421 kts 264°
2026-05-06 22:34 51.72380 1.24421 20024 ft 417 kts 264°
2026-05-06 22:34 51.72070 1.19790 19400 ft 414 kts 264°
2026-05-06 22:34 51.71763 1.15192 18781 ft 410 kts 264°
2026-05-06 22:34 51.71458 1.10643 18147 ft 407 kts 264°
2026-05-06 22:35 51.71154 1.06120 17506 ft 404 kts 264°
2026-05-06 22:35 51.70850 1.01647 16908 ft 400 kts 264°
2026-05-06 22:35 51.70543 0.97205 16305 ft 397 kts 264°
2026-05-06 22:35 51.70238 0.92794 15607 ft 396 kts 264°
2026-05-06 22:36 51.69931 0.88334 14539 ft 404 kts 264°
2026-05-06 22:36 51.69613 0.83788 13480 ft 411 kts 264°
2026-05-06 22:36 51.69294 0.79245 12946 ft 403 kts 264°
2026-05-06 22:36 51.68984 0.74864 12809 ft 384 kts 264°
2026-05-06 22:37 51.68685 0.70680 12674 ft 367 kts 264°
2026-05-06 22:37 51.68399 0.66680 12549 ft 352 kts 264°
2026-05-06 22:37 51.68125 0.62845 12411 ft 337 kts 264°
2026-05-06 22:37 51.67861 0.59161 12280 ft 324 kts 264°
2026-05-06 22:38 51.67604 0.55622 12151 ft 312 kts 264°
2026-05-06 22:38 51.67355 0.52203 12012 ft 302 kts 264°
2026-05-06 22:38 51.67113 0.48878 11727 ft 297 kts 264°
2026-05-06 22:38 51.66872 0.45594 11384 ft 294 kts 264°
2026-05-06 22:39 51.66632 0.42327 11022 ft 293 kts 264°
2026-05-06 22:39 51.66393 0.39083 10651 ft 291 kts 264°
2026-05-06 22:39 51.66153 0.35850 10285 ft 290 kts 264°
2026-05-06 22:39 51.65914 0.32634 9918 ft 289 kts 264°
2026-05-06 22:40 51.65677 0.29433 9521 ft 287 kts 264°
2026-05-06 22:40 51.65441 0.26294 9117 ft 286 kts 264°
2026-05-06 22:40 51.65202 0.23132 8781 ft 282 kts 264°
2026-05-06 22:40 51.64969 0.20067 8648 ft 270 kts 264°
2026-05-06 22:41 51.64445 0.14309 8299 ft 253 kts 254°
2026-05-06 22:41 51.63952 0.11609 7947 ft 251 kts 253°
2026-05-06 22:41 51.63458 0.08920 7589 ft 250 kts 253°
2026-05-06 22:42 51.62963 0.06243 7211 ft 250 kts 252°
2026-05-06 22:42 51.62469 0.03568 6851 ft 249 kts 252°
2026-05-06 22:42 51.61978 0.00903 6500 ft 248 kts 252°
2026-05-06 22:42 51.61602 -0.01127 6353 ft 243 kts 253°
2026-05-06 22:43 51.61125 -0.03706 6207 ft 239 kts 253°
2026-05-06 22:43 51.60651 -0.06260 6078 ft 237 kts 253°
2026-05-06 22:43 51.60180 -0.08803 5962 ft 237 kts 253°
2026-05-06 22:43 51.59708 -0.11339 5853 ft 237 kts 253°
2026-05-06 22:44 51.59235 -0.13872 5740 ft 236 kts 253°
2026-05-06 22:44 51.58770 -0.16365 5631 ft 236 kts 253°
2026-05-06 22:44 51.58299 -0.18884 5520 ft 235 kts 253°
2026-05-06 22:44 51.57828 -0.21394 5389 ft 234 kts 253°
2026-05-06 22:45 51.57359 -0.23905 5273 ft 234 kts 253°
2026-05-06 22:45 51.56893 -0.26400 5166 ft 233 kts 254°
2026-05-06 22:45 51.56427 -0.28887 5057 ft 232 kts 253°
2026-05-06 22:45 51.55958 -0.31373 4949 ft 232 kts 254°
2026-05-06 22:46 51.55490 -0.33850 4837 ft 231 kts 254°
2026-05-06 22:46 51.55024 -0.36320 4735 ft 231 kts 253°
2026-05-06 22:46 51.54555 -0.38790 4615 ft 230 kts 254°
2026-05-06 22:46 51.54090 -0.41253 4508 ft 231 kts 254°
2026-05-06 22:47 51.53627 -0.43715 4398 ft 231 kts 254°
2026-05-06 22:47 51.53161 -0.46180 4293 ft 230 kts 254°
2026-05-06 22:47 51.52695 -0.48642 4179 ft 230 kts 254°
2026-05-06 22:47 51.52229 -0.51098 4072 ft 230 kts 253°
2026-05-06 22:48 51.51761 -0.53554 3961 ft 230 kts 253°
2026-05-06 22:48 51.51292 -0.56008 3854 ft 230 kts 253°
2026-05-06 22:48 51.50847 -0.58333 3750 ft 229 kts 254°
2026-05-06 22:48 51.50379 -0.60778 3645 ft 229 kts 255°
2026-05-06 22:49 51.49912 -0.63224 3533 ft 229 kts 255°
2026-05-06 22:49 51.49443 -0.65668 3422 ft 229 kts 255°
2026-05-06 22:49 51.48973 -0.68113 3312 ft 227 kts 254°
2026-05-06 22:49 51.48515 -0.70491 3209 ft 221 kts 254°
2026-05-06 22:50 51.48063 -0.72844 3103 ft 221 kts 254°
2026-05-06 22:50 51.47610 -0.75199 3005 ft 220 kts 254°
2026-05-06 22:50 51.47166 -0.77550 3005 ft 220 kts 255°
2026-05-06 22:50 51.46735 -0.79878 3005 ft 221 kts 255°
2026-05-06 22:51 51.46300 -0.82236 3004 ft 221 kts 255°
2026-05-06 22:51 51.45866 -0.84598 3005 ft 221 kts 255°
2026-05-06 22:51 51.45200 -0.86785 3005 ft 220 kts 225°
2026-05-06 22:51 51.43884 -0.87765 3003 ft 207 kts 181°
2026-05-06 22:52 51.42554 -0.87142 2998 ft 200 kts 141°
2026-05-06 22:52 51.41781 -0.85360 3002 ft 197 kts 101°
2026-05-06 22:52 51.41884 -0.83259 3002 ft 192 kts 59°
2026-05-06 22:52 51.42609 -0.81438 3002 ft 193 kts 58°
2026-05-06 22:53 51.43300 -0.79582 3006 ft 194 kts 58°
2026-05-06 22:53 51.43989 -0.77719 3007 ft 194 kts 57°
2026-05-06 22:53 51.44678 -0.75856 3008 ft 194 kts 57°
2026-05-06 22:53 51.45364 -0.73998 3007 ft 194 kts 58°
2026-05-06 22:54 51.46052 -0.72132 2960 ft 195 kts 58°
2026-05-06 22:54 51.46740 -0.70265 2787 ft 194 kts 58°
2026-05-06 22:54 51.47334 -0.68335 2576 ft 193 kts 72°
2026-05-06 22:54 51.47578 -0.66252 2350 ft 188 kts 82°
2026-05-06 22:55 51.47651 -0.64180 2080 ft 184 kts 87°
2026-05-06 22:55 51.47663 -0.63497 1983 ft 180 kts 86°
2026-05-06 22:55 51.47691 -0.60339 1596 ft 161 kts 87°
2026-05-06 22:55 51.47700 -0.58608 1386 ft 149 kts 87°
2026-05-06 22:56 51.47709 -0.56993 1201 ft 142 kts 86°
2026-05-06 22:56 51.47718 -0.55429 993 ft 139 kts 87°
2026-05-06 22:56 51.47727 -0.53884 799 ft 138 kts 87°
2026-05-06 22:56 51.47738 -0.52352 609 ft 136 kts 88°
2026-05-06 22:57 51.47745 -0.50836 403 ft 135 kts 87°
2026-05-06 22:57 51.47748 -0.49326 246 ft 136 kts 87°
2026-05-06 22:57 51.47756 -0.47819 97 ft 134 kts 87°
2026-05-06 22:57 51.47762 -0.46473 91 ft 107 kts 90°
2026-05-06 22:58 51.47762 -0.45121 94 ft 151 kts 88°
2026-05-06 22:58 51.47750 -0.43298 689 ft 157 kts 89°
2026-05-06 22:58 51.47718 -0.41713 1884 ft 135 kts 90°
2026-05-06 22:58 51.47595 -0.40176 2531 ft 155 kts 123°
2026-05-06 22:59 51.46542 -0.39978 2717 ft 194 kts 231°
2026-05-06 22:59 51.46209 -0.42250 2928 ft 236 kts 267°
2026-05-06 22:59 51.46093 -0.45147 3016 ft 290 kts 267°
2026-05-06 22:59 51.45963 -0.48609 3264 ft 330 kts 267°
2026-05-06 23:00 51.45818 -0.52464 3554 ft 362 kts 266°
2026-05-06 23:00 51.45616 -0.56543 4042 ft 359 kts 266°
2026-05-06 23:00 51.45379 -0.60524 4121 ft 356 kts 263°
2026-05-06 23:00 51.45189 -0.64463 4118 ft 353 kts 267°
2026-05-06 23:01 51.45086 -0.68262 4120 ft 353 kts 268°
2026-05-06 23:01 51.44977 -0.72182 4118 ft 353 kts 268°
2026-05-06 23:01 51.44873 -0.76119 4119 ft 353 kts 268°
2026-05-06 23:01 51.44770 -0.80023 4114 ft 342 kts 268°
2026-05-06 23:02 51.44674 -0.83678 4111 ft 316 kts 268°
2026-05-06 23:02 51.44581 -0.87066 4113 ft 293 kts 268°
2026-05-06 23:02 51.44493 -0.90222 4112 ft 273 kts 268°
2026-05-06 23:02 51.44441 -0.91848 4111 ft 262 kts 268°
2026-05-06 23:03 51.44352 -0.94661 4112 ft 243 kts 268°
2026-05-06 23:03 51.44265 -0.97271 4107 ft 226 kts 268°
2026-05-06 23:03 51.44167 -0.99749 4114 ft 222 kts 268°
2026-05-06 23:03 51.44320 -1.02172 4115 ft 218 kts 292°
2026-05-06 23:04 51.45130 -1.04177 4115 ft 215 kts 320°
2026-05-06 23:04 51.46424 -1.05322 4117 ft 214 kts 347°
2026-05-06 23:04 51.47899 -1.05344 4117 ft 215 kts 15°
2026-05-06 23:04 51.49196 -1.04256 4118 ft 216 kts 42°
2026-05-06 23:05 51.50047 -1.02245 4115 ft 219 kts 70°
2026-05-06 23:05 51.50199 -0.99848 4119 ft 222 kts 96°
2026-05-06 23:05 51.49997 -0.97383 4118 ft 223 kts 96°
2026-05-06 23:05 51.49794 -0.94915 4123 ft 224 kts 97°
2026-05-06 23:06 51.49591 -0.92439 4115 ft 220 kts 97°
2026-05-06 23:06 51.49400 -0.90086 4108 ft 206 kts 97°
2026-05-06 23:06 51.49218 -0.87835 4112 ft 202 kts 97°
2026-05-06 23:06 51.49039 -0.85599 4116 ft 202 kts 97°
2026-05-06 23:07 51.48862 -0.83387 4114 ft 201 kts 97°
2026-05-06 23:07 51.48690 -0.81250 4134 ft 184 kts 96°
2026-05-06 23:07 51.48529 -0.79301 4110 ft 168 kts 97°
2026-05-06 23:07 51.48380 -0.77486 3878 ft 166 kts 96°
2026-05-06 23:08 51.48229 -0.75604 3427 ft 174 kts 97°
2026-05-06 23:08 51.48072 -0.73651 3052 ft 176 kts 97°
2026-05-06 23:08 51.47922 -0.71796 3002 ft 158 kts 96°
2026-05-06 23:08 51.47785 -0.70085 2877 ft 155 kts 94°
2026-05-06 23:09 51.47712 -0.68379 2628 ft 152 kts 90°
2026-05-06 23:09 51.47687 -0.66705 2406 ft 148 kts 89°
2026-05-06 23:09 51.47681 -0.65076 2196 ft 144 kts 88°
2026-05-06 23:09 51.47683 -0.63483 2000 ft 142 kts 88°
2026-05-06 23:10 51.47686 -0.62417 1867 ft 141 kts 88°
2026-05-06 23:10 51.47695 -0.60336 1627 ft 139 kts 88°
2026-05-06 23:10 51.47700 -0.59289 1485 ft 139 kts 88°
2026-05-06 23:10 51.47707 -0.57746 1289 ft 138 kts 88°
2026-05-06 23:11 51.47714 -0.56210 1093 ft 138 kts 87°
2026-05-06 23:11 51.47721 -0.54677 894 ft 137 kts 89°
2026-05-06 23:11 51.47728 -0.53169 706 ft 136 kts 88°
2026-05-06 23:11 51.47733 -0.51635 503 ft 135 kts 87°
2026-05-06 23:12 51.47743 -0.50154 331 ft 134 kts 88°
2026-05-06 23:12 51.47753 -0.48657 160 ft 134 kts 88°
2026-05-06 23:12 51.47753 -0.47189 88 ft 123 kts 89°
2026-05-06 23:12 51.47759 -0.46068 87 ft 76 kts 90°
2026-05-06 23:13 51.47764 -0.45474 85 ft 41 kts 88°
2026-05-06 23:13 51.47766 -0.45044 89 ft 28 kts 90°
2026-05-06 23:13 51.47723 -0.44869 89 ft 18 kts 144°
2026-05-06 23:13 51.47610 -0.44804 89 ft 16 kts 216°
2026-05-06 23:14 51.47602 -0.44948 86 ft 12 kts 267°
2026-05-06 23:14 51.47598 -0.45123 86 ft 19 kts 268°
2026-05-06 23:14 51.47598 -0.45370 86 ft 26 kts 269°
2026-05-06 23:14 51.47597 -0.45790 86 ft 50 kts 270°
2026-05-06 23:15 51.47597 -0.46344 86 ft 48 kts 269°
2026-05-06 23:15 51.47584 -0.46872 90 ft 46 kts 268°
2026-05-06 23:15 51.47581 -0.47379 90 ft 45 kts 270°
2026-05-06 23:15 51.47583 -0.47866 90 ft 43 kts 267°
2026-05-06 23:16 51.47576 -0.48269 86 ft 19 kts 269°
2026-05-06 23:16 51.47541 -0.48470 86 ft 19 kts 200°
2026-05-06 23:16 51.47409 -0.48475 86 ft 19 kts 178°
2026-05-06 23:16 51.47339 -0.48473 86 ft 5 kts 179°
2026-05-06 23:17 51.47316 -0.48500 88 ft 4 kts 255°
2026-05-06 23:17 51.47316 -0.48573 86 ft 5 kts 270°
2026-05-06 23:17 51.47316 -0.48597 86 ft 0 kts 270°